Torna al catalogo

KUIPER-00276

AttivoComunicazioniLEO
NORAD 67794·PAYLOAD·🇺🇸 United States

Lanciato Feb 12, 2026 da Guiana Space Centre

Loading…

Prossimi Passaggi (prossime 24 ore)

TLE

AggiornatoSource: CelesTrak SupGP

Epoca: Sep 14, 2026, 18:10 UTC

1 67794C 26030AG  26257.75740741  .00002479  00000+0  32459-3 0  2575
2 67794  51.8978  72.0450 0001027  89.5016  64.2089 14.79916575    14

Traccia KUIPER-00276 in tempo reale con AllMySat

Download on the App Store